Newport, VT

4:47 PM EST on December 05, 2019 (GMT -0500)
Newport State

Weather History for KEFK - July, 2019

Change the Weather History Date:

Monday, July 22, 2019

  Actual Average Record
Temperature  
Mean Temperature 62 °F -  
Max Temperature 66 °F 78 °F 94 °F (1955)
Min Temperature 59 °F 55 °F 40 °F (1992)
Degree Days  
Heating Degree Days 2    
Growing Degree Days 12 (Base 50)    
Moisture  
Dew Point 56 °F    
Average Humidity 77    
Maximum Humidity 99    
Minimum Humidity 56    
Precipitation  
Precipitation 0.00 in - - ()
Sea Level Pressure  
Sea Level Pressure 29.93 in    
Wind  
Wind Speed 3 mph (NW)    
Max Wind Speed 9 mph    
Max Gust Speed -    
Visibility 10 miles    
Events Rain    
Averages and records for this station are not official NWS values.
T = Trace of Precipitation, MM = Missing Value Source: NWS Daily Summary

Daily Weather History Graph

Daily Weather History Graph

Search for Another Location

Airport or City:

Astronomy

Jul. 22, 2019 Rise Set
Actual Time 5:23 AM EDT 8:26 PM EDT
Civil Twilight 4:48 AM EDT 9:01 PM EDT
Nautical Twilight 4:03 AM EDT 9:46 PM EDT
Astronomical Twilight 3:09 AM EDT 10:39 PM EDT
Moon 11:32 PM EDT (7/22) 10:49 AM EDT (7/22)
Length of Visible Light 16h 13m
Length of Day
15h 03m
Waning Gibbous, 72% of the Moon is Illuminated
Jul 22
Waning Gibbous
Jul 24
Last Quarter
Jul 31
New
Aug 7
First Quarter
Aug 15
Full

Hourly Weather History & Observations

Time (EDT) Temp. Dew Point Humidity Pressure Visibility Wind Dir Wind Speed Gust Speed Precip Events Conditions
12:18 AM 65.3 °F 61.9 °F 89% 29.87 in 10.0 mi WSW 3.5 mph - N/A   Clear
12:36 AM 63.1 °F 61.0 °F 93% 29.86 in 10.0 mi NNW 8.1 mph - N/A   Clear
12:59 AM 66.2 °F 62.1 °F 86% 29.88 in 10.0 mi WNW 5.8 mph - N/A   Clear
1:15 AM 66.2 °F 62.8 °F 89% 29.89 in 10.0 mi NNW 4.6 mph - N/A   Mostly Cloudy
1:16 AM 66.2 °F 62.8 °F 89% 29.89 in 10.0 mi NNW 4.6 mph - N/A   Mostly Cloudy
1:38 AM 66.2 °F 63.1 °F 90% 29.89 in 10.0 mi NNW 3.5 mph - N/A   Overcast
1:56 AM 65.3 °F 62.8 °F 92% 29.90 in 10.0 mi Calm Calm - N/A   Overcast
2:19 AM 64.4 °F 62.6 °F 94% 29.91 in 10.0 mi Calm Calm - N/A   Mostly Cloudy
2:35 AM 63.0 °F 61.9 °F 96% 29.91 in 10.0 mi Calm Calm - N/A   Mostly Cloudy
2:36 AM 62.8 °F 61.9 °F 97% 29.91 in 10.0 mi Calm Calm - N/A   Mostly Cloudy
2:58 AM 62.4 °F 61.7 °F 97% 29.92 in 10.0 mi Calm Calm - N/A   Scattered Clouds
3:35 AM 61.3 °F 60.1 °F 96% 29.92 in 10.0 mi NNW 3.5 mph - N/A   Clear
3:39 AM 61.7 °F 59.9 °F 94% 29.92 in 10.0 mi Calm Calm - N/A   Clear
3:55 AM 62.4 °F 59.9 °F 91% 29.93 in 10.0 mi Calm Calm - N/A   Clear
3:56 AM 62.2 °F 60.1 °F 93% 29.93 in 10.0 mi Calm Calm - N/A   Clear
4:18 AM 62.1 °F 55.8 °F 80% 29.94 in 10.0 mi NNE 8.1 mph - N/A   Clear
4:36 AM 60.8 °F 56.3 °F 85% 29.93 in 10.0 mi North 5.8 mph - N/A   Clear
4:58 AM 59.9 °F 54.0 °F 81% 29.95 in 10.0 mi NNW 6.9 mph - N/A   Clear
5:15 AM 60.3 °F 53.8 °F 79% 29.96 in 10.0 mi NNW 6.9 mph - N/A   Scattered Clouds
5:16 AM 60.3 °F 53.6 °F 79% 29.96 in 10.0 mi NNW 8.1 mph - N/A   Mostly Cloudy
5:38 AM 59.9 °F 52.5 °F 77% 29.96 in 10.0 mi North 8.1 mph - N/A   Overcast
5:56 AM 59.7 °F 52.2 °F 76% 29.96 in 10.0 mi NNW 4.6 mph - N/A   Scattered Clouds
6:18 AM 60.6 °F 51.4 °F 72% 29.96 in 10.0 mi North 6.9 mph - N/A   Clear
6:35 AM 60.8 °F 51.6 °F 72% 29.96 in 10.0 mi North 6.9 mph - N/A   Clear
6:36 AM 60.8 °F 51.6 °F 72% 29.96 in 10.0 mi North 6.9 mph - N/A   Clear
6:58 AM 60.8 °F 50.5 °F 69% 29.96 in 10.0 mi North 6.9 mph - N/A   Clear
7:16 AM 61.0 °F 51.8 °F 72% 29.96 in 10.0 mi NNE 6.9 mph - N/A   Clear
7:38 AM 61.5 °F 52.5 °F 72% 29.96 in 10.0 mi NNE 6.9 mph - N/A   Clear
7:55 AM 61.7 °F 52.0 °F 70% 29.96 in 10.0 mi North 5.8 mph - N/A   Clear
7:56 AM 61.9 °F 51.8 °F 69% 29.96 in 10.0 mi North 6.9 mph - N/A   Clear
8:18 AM 63.0 °F 49.5 °F 61% 29.96 in 10.0 mi NNE 8.1 mph - N/A   Clear
8:36 AM 62.4 °F 49.8 °F 63% 29.96 in 10.0 mi North 6.9 mph - N/A   Clear
8:58 AM 62.8 °F 50.2 °F 63% 29.96 in 10.0 mi North 8.1 mph - N/A   Clear
9:15 AM 63.9 °F 48.6 °F 57% 29.95 in 0.8 mi NNE 9.2 mph - N/A   Haze
9:38 AM 64.6 °F 50.0 °F 59% 29.96 in 10.0 mi North 6.9 mph - N/A   Clear
9:56 AM 64.8 °F 49.6 °F 58% 29.97 in 10.0 mi North 4.6 mph - N/A   Clear
10:18 AM 64.6 °F 49.1 °F 57% 29.98 in 10.0 mi NNW 3.5 mph - N/A   Clear
10:35 AM 65.3 °F 50.7 °F 59% 29.98 in 10.0 mi Calm Calm - N/A   Clear
10:36 AM 65.5 °F 50.9 °F 59% 29.98 in 10.0 mi Calm Calm - N/A   Clear
10:58 AM 66.2 °F 50.0 °F 56% 29.98 in 10.0 mi Calm Calm - N/A   Clear
11:16 AM 65.7 °F 50.5 °F 58% 29.98 in 10.0 mi Calm Calm - N/A   Clear
11:38 AM 65.5 °F 51.6 °F 61% 29.98 in 10.0 mi WSW 4.6 mph - N/A   Clear
11:55 AM 65.8 °F 51.8 °F 60% 29.97 in 10.0 mi South 5.8 mph - N/A   Clear
12:18 PM 65.5 °F 52.7 °F 63% 29.97 in 10.0 mi South 4.6 mph - N/A   Clear
12:36 PM 65.8 °F 51.4 °F 60% 29.96 in 10.0 mi SSE 3.5 mph - N/A   Clear
12:58 PM 65.7 °F 51.8 °F 61% 29.96 in 10.0 mi Calm Calm - N/A   Clear
1:15 PM 66.2 °F 51.1 °F 58% 29.95 in 10.0 mi Calm Calm - N/A   Clear
1:16 PM 66.2 °F 51.1 °F 58% 29.95 in 10.0 mi Calm Calm - N/A   Scattered Clouds
1:35 PM 65.8 °F 52.9 °F 63% 29.96 in 10.0 mi WSW 3.5 mph - N/A   Scattered Clouds
1:56 PM 65.3 °F 52.9 °F 64% 29.96 in 10.0 mi SW 3.5 mph - N/A Rain Light Rain
2:15 PM 65.3 °F 53.4 °F 65% 29.95 in 10.0 mi SSW 4.6 mph - N/A   Scattered Clouds
2:36 PM 64.9 °F 52.5 °F 64% 29.95 in 10.0 mi SW 3.5 mph - N/A   Mostly Cloudy
2:55 PM 64.9 °F 55.0 °F 70% 29.94 in 10.0 mi Calm Calm - N/A   Scattered Clouds
3:16 PM 64.6 °F 54.7 °F 70% 29.93 in 10.0 mi Calm Calm - N/A   Mostly Cloudy
3:38 PM 64.9 °F 55.2 °F 71% 29.92 in 10.0 mi Calm Calm - N/A   Mostly Cloudy
3:56 PM 65.3 °F 54.9 °F 69% 29.92 in 10.0 mi SSE 3.5 mph - N/A   Scattered Clouds
4:15 PM 65.3 °F 55.8 °F 71% 29.92 in 10.0 mi SSW 4.6 mph - N/A   Clear
4:19 PM 65.5 °F 56.3 °F 72% 29.92 in 10.0 mi SSW 3.5 mph - N/A   Clear
4:35 PM 65.7 °F 56.3 °F 72% 29.91 in 10.0 mi Calm Calm - N/A   Clear
4:36 PM 65.8 °F 56.3 °F 71% 29.91 in 10.0 mi Calm Calm - N/A   Clear
4:58 PM 66.4 °F 56.3 °F 70% 29.91 in 10.0 mi SW 3.5 mph - N/A   Clear
5:16 PM 65.8 °F 56.1 °F 71% 29.91 in 10.0 mi SSW 4.6 mph - N/A   Clear
5:35 PM 66.2 °F 56.8 °F 72% 29.91 in 10.0 mi Calm Calm - N/A   Clear
5:55 PM 66.0 °F 57.2 °F 73% 29.90 in 10.0 mi SSE 3.5 mph - N/A   Clear
5:56 PM 66.0 °F 57.0 °F 73% 29.90 in 10.0 mi Calm Calm - N/A   Clear
6:18 PM 65.5 °F 57.6 °F 76% 29.90 in 10.0 mi Calm Calm - N/A   Clear
6:36 PM 64.9 °F 58.5 °F 79% 29.90 in 10.0 mi Calm Calm - N/A   Clear
6:55 PM 64.0 °F 58.5 °F 82% 29.89 in 10.0 mi Calm Calm - N/A   Scattered Clouds
7:16 PM 63.7 °F 59.0 °F 85% 29.90 in 10.0 mi Calm Calm - N/A   Clear
7:38 PM 63.0 °F 58.1 °F 84% 29.90 in 10.0 mi WSW 3.5 mph - N/A   Scattered Clouds
7:56 PM 62.4 °F 58.6 °F 87% 29.90 in 10.0 mi Calm Calm - N/A   Clear
8:15 PM 61.7 °F 59.4 °F 92% 29.90 in 10.0 mi Calm Calm - N/A   Clear
8:19 PM 61.7 °F 59.2 °F 91% 29.90 in 10.0 mi Calm Calm - N/A   Clear
8:36 PM 61.7 °F 59.2 °F 91% 29.89 in 10.0 mi Calm Calm - N/A   Clear
8:58 PM 61.5 °F 58.5 °F 90% 29.90 in 10.0 mi Calm Calm - N/A   Mostly Cloudy
9:16 PM 61.0 °F 59.2 °F 94% 29.90 in 10.0 mi Calm Calm - N/A   Overcast
9:35 PM 60.8 °F 59.0 °F 94% 29.91 in 10.0 mi Calm Calm - N/A   Overcast
9:56 PM 60.3 °F 59.4 °F 97% 29.90 in 10.0 mi Calm Calm - N/A   Overcast
10:18 PM 61.0 °F 58.3 °F 91% 29.91 in 10.0 mi Calm Calm - N/A   Overcast
10:36 PM 60.6 °F 57.7 °F 90% 29.91 in 7.0 mi Calm Calm - N/A   Overcast
10:55 PM 60.8 °F 58.1 °F 91% 29.90 in 10.0 mi Calm Calm - N/A   Overcast
11:16 PM 60.6 °F 57.4 °F 89% 29.90 in 10.0 mi Calm Calm - N/A   Overcast
11:38 PM 59.9 °F 58.1 °F 94% 29.90 in 10.0 mi Calm Calm - N/A   Overcast
11:56 PM 59.2 °F 59.0 °F 99% 29.90 in 10.0 mi SW 3.5 mph - N/A   Overcast